Location: Unspecified
(0.0000°N, 0.0000°E)
Time: 15:14:17
(UTC+00:00)

Altair - Pass Details

Date: 03 November 2021
Orbit: 1502 x 1682 km, 47.2° (Epoch: 26 November)

Event Time Altitude Azimuth Distance (km) Brightness Sun altitude
Rises 21:53:01 0° 240° (WSW) 4,690 10.5 -58.7°
Reaches altitude 10° 21:56:28 10° 249° (WSW) 3,686 9.8 -59.4°
Enters shadow 21:57:47 15° 254° (WSW) 3,329 9.5 -59.7°
Maximum altitude 22:04:32 34° 311° (NW) 2,274 - -61.1°
Drops below altitude 10° 22:12:34 10° 13° (NNE) 3,642 - -62.8°
Sets 22:15:59 0° 22° (NNE) 4,628 - -63.5°
